Temp
18 18 18 18 18 17 17 17 17 17 17 17 16 16 16 16 15 15 15 15 15 15 16 16 16 16 17 17 17 17 17 17 17 17 17 17 17 17 17 17 17 17 16 16 16 15 15 15 15 15 15 15 15 15 15 15 15 15 14 14 14 14 14 14 14 14 13 13 13
17 17 17 17 17 17 17 17 17 17 16 16 16 15 15 15 14 14 14 14 14 15 15 15 16 16 16 16 17 17 17 17 17 17 17 17 17 17 17 17 17 16 16 16 15 15 14 14 15 15 15 15 15 15 15 15 15 14 14 14 14 14 14 13 13 13 13 13 13
17 17 17 17 17 17 16 16 16 16 16 16 15 15 15 14 14 14 14 14 14 14 14 14 15 15 16 16 16 16 16 16 16 16 16 16 16 16 16 16 15 15 15 14 14 14 14 15 15 15 15 15 15 15 14 14 14 14 14 14 14 14 13 13 13 13 13 13 13
17 17 17 17 16 16 16 16 16 15 15 15 15 15 14 14 14 14 14 14 14 14 14 14 14 14 15 15 15 15 16 16 16 16 15 15 15 15 14 14 14 14 14 14 14 14 14 15 15 15 14 14 14 14 14 14 14 14 14 14 14 14 13 13 13 13 13 13 13
16 16 16 16 16 16 16 15 15 15 15 15 15 14 14 14 14 14 13 13 13 13 13 14 13 14 14 14 14 15 15 15 15 15 15 14 14 14 14 13 13 13 14 14 14 14 14 14 14 14 14 14 14 14 14 14 14 14 13 13 13 13 13 13 13 13 13 13 12
16 16 16 15 16 15 15 15 15 15 15 14 14 14 13 13 13 13 13 13 13 13 13 13 13 14 14 14 14 14 14 14 14 14 13 13 13 13 13 13 13 13 13 14 14 14 14 14 14 14 14 14 14 14 14 13 13 13 13 13 13 13 13 12 12 12 12 12 12
15 15 15 15 15 15 15 15 15 14 14 14 13 13 13 13 12 12 12 12 12 12 13 13 13 13 13 13 13 13 13 13 13 12 12 12 12 12 12 12 13 13 13 13 13 13 13 13 13 13 13 13 13 13 13 13 13 13 13 13 12 12 12 12 12 12 11 11 11
14 14 15 15 14 15 15 14 14 14 13 13 13 12 12 12 12 12 12 12 12 12 12 12 12 12 12 12 12 12 12 12 12 12 12 12 12 12 12 13 13 13 13 13 13 13 13 13 13 13 13 13 13 13 13 13 13 12 12 12 12 11 11 11 11 11 11 11 11
14 14 14 14 14 14 14 14 13 13 13 12 12 12 12 12 12 12 12 12 12 12 12 11 11 11 11 11 11 11 11 12 12 12 12 12 12 12 12 12 12 13 13 13 13 13 13 13 13 13 13 13 12 12 12 12 12 12 12 12 11 11 11 11 10 10 10 10 11
13 14 14 14 13 13 13 13 13 12 12 12 12 12 12 12 12 12 12 11 11 11 11 11 11 11 11 11 11 11 11 11 11 12 12 12 12 12 12 12 12 12 12 12 12 12 12 12 12 12 12 12 12 11 11 11 11 11 11 11 11 11 10 10 10 10 10 10 10
13 13 13 13 13 13 12 12 12 12 12 12 12 12 12 12 11 11 11 11 11 11 10 10 11 11 11 11 11 11 11 11 11 11 11 11 11 11 12 12 12 12 12 12 12 12 12 12 12 12 12 11 11 11 11 10 10 10 11 11 11 10 10 10 10 10 10 10 10
12 13 13 12 12 12 12 12 12 11 11 11 11 11 11 11 11 11 10 10 10 10 10 10 11 11 11 11 11 11 11 11 11 11 11 11 11 11 11 11 12 12 11 11 11 11 11 11 12 12 12 11 11 11 10 10 9 9 10 10 10 9 9 9 9 9 9 9 9
12 12 12 12 11 11 11 11 11 11 10 10 10 10 10 10 10 10 10 10 10 10 10 10 10 11 11 11 11 11 11 11 11 11 11 11 11 11 11 11 11 11 11 11 11 11 11 11 11 11 11 11 11 10 10 9 9 9 9 9 9 9 9 9 9 9 8 8 8
11 11 11 11 11 10 10 10 10 10 10 10 9 9 9 9 9 9 9 9 10 10 10 10 10 10 10 10 10 10 10 10 10 10 10 10 10 10 10 10 10 10 10 10 10 10 10 10 10 10 10 10 10 10 9 9 8 8 8 8 8 8 8 8 8 8 8 7 7
10 10 10 10 10 10 9 9 9 9 9 9 9 9 9 9 8 8 9 9 9 10 10 10 10 10 10 10 10 10 10 10 10 10 10 10 10 10 9 10 10 9 9 9 9 9 9 9 9 9 9 9 9 9 8 8 8 8 8 8 8 8 7 7 7 7 7 7 6
10 10 10 10 9 9 9 9 9 8 8 8 8 8 8 8 8 8 8 9 9 9 9 9 9 9 9 9 9 9 9 9 9 9 9 9 9 9 9 9 9 9 8 8 8 8 8 8 8 8 8 8 8 8 7 7 7 7 7 7 7 7 7 6 6 6 6 6 6
9 9 9 9 9 8 8 8 8 8 8 8 8 8 8 8 8 8 8 8 8 8 8 8 9 9 9 9 9 9 8 8 8 8 8 8 8 8 8 8 8 7 7 7 7 7 7 7 7 7 7 7 7 7 6 6 6 6 6 6 6 6 5 5 5 5 5 5 5
9 9 8 8 8 8 8 8 8 8 8 7 7 7 7 7 7 7 7 7 7 8 8 8 8 8 8 8 8 8 8 7 7 7 7 7 7 7 7 7 7 6 6 6 6 6 6 6 6 5 5 5 5 5 5 5 5 5 5 5 5 4 4 4 4 4 4 5 5
9 8 8 8 8 8 8 8 8 8 7 7 7 7 7 7 7 7 7 7 7 7 7 7 7 7 7 7 7 7 7 6 6 6 6 6 6 6 6 6 5 5 5 5 5 5 5 5 5 4 4 4 4 4 4 4 4 4 4 4 3 3 4 4 4 4 4 4 4
8 8 8 8 7 7 7 7 7 7 7 7 7 7 7 7 6 6 6 6 6 6 6 6 6 6 6 6 6 6 6 5 5 5 5 5 5 5 5 4 4 4 4 4 4 4 4 4 4 4 4 4 4 3 3 3 3 3 3 3 3 3 3 3 3 3 3 4 4
8 8 7 7 7 7 7 7 7 7 7 7 6 6 6 6 6 6 6 6 6 6 6 6 5 5 5 5 5 5 5 4 4 4 4 4 4 4 3 3 3 3 3 3 3 3 3 3 3 3 3 3 3 3 2 2 2 2 2 2 2 2 2 2 2 3 3 3 3
7 7 7 7 7 6 6 6 6 6 6 6 6 6 6 6 6 6 5 5 5 5 5 5 5 5 5 4 4 4 4 4 4 4 4 3 3 3 3 2 3 3 3 3 2 2 2 2 2 2 2 2 2 2 2 2 1 1 1 1 1 1 1 2 2 2 2 2 2
7 7 7 6 6 6 6 6 6 6 6 6 5 5 5 5 5 5 5 5 5 5 5 5 4 4 4 4 4 4 4 4 4 4 4 3 3 3 2 2 2 2 2 2 2 2 2 2 2 2 2 1 1 1 1 1 1 1 1 1 1 1 1 1 1 1 1 1 2
7 7 6 6 6 6 6 5 5 5 5 5 5 5 5 5 5 5 5 4 4 4 4 4 4 4 4 4 3 3 3 4 4 4 3 3 3 3 2 2 2 2 1 1 1 1 1 1 1 1 1 1 1 1 1 1 1 1 1 1 1 1 1 1 1 1 1 1 1
6 6 6 6 6 5 5 5 5 5 4 4 4 4 4 4 4 4 4 4 4 4 4 4 4 3 3 3 3 3 3 3 3 3 3 3 2 2 2 2 1 1 1 1 1 1 1 1 1 1 1 1 1 1 1 1 1 1 1 1 1 0 0 0 0 1 1 1 1
6 6 5 5 5 5 4 4 4 4 4 4 3 3 4 4 4 4 4 4 4 3 3 3 3 3 3 3 3 3 3 3 2 2 2 2 2 2 2 1 1 1 0 0 0 0 1 1 1 1 1 1 1 1 0 0 0 1 0 0 0 0 0 0 0 0 1 1 1
5 5 5 4 4 4 3 3 3 3 3 3 3 3 3 3 3 3 3 3 3 3 3 3 3 3 2 2 2 2 2 2 2 2 2 2 2 1 1 1 1 0 0 -0 -0 0 0 1 1 1 1 1 1 1 0 0 0 0 0 0 0 0 0 0 0 0 0 0 0
4 4 4 4 3 3 3 3 3 3 3 3 3 3 3 3 3 3 3 3 3 2 2 2 2 2 2 2 2 2 2 2 2 2 2 1 1 1 1 1 0 0 -0 -0 -0 -0 0 0 0 1 1 1 1 1 0 0 0 0 0 0 0 0 0 0 0 0 0 0 0
4 4 3 3 3 3 3 3 3 3 3 3 3 2 2 2 3 3 3 3 2 2 2 2 2 2 2 1 1 2 2 1 1 1 1 1 1 1 1 1 0 0 0 0 0 -0 -0 0 0 0 1 1 1 1 1 1 1 0 0 0 -0 -0 -0 -0 -0 -0 -0 -0 -0
4 3 3 3 3 3 3 3 2 2 2 2 2 2 2 2 2 2 2 2 2 2 2 2 1 1 1 1 1 1 1 1 1 1 1 1 1 1 1 1 1 0 0 0 0 -0 -0 -0 0 0 1 1 1 1 1 1 1 0 0 -0 -0 -0 -0 -0 -0 -0 -0 -0 -0
3 3 3 3 3 3 3 2 2 2 2 2 2 2 2 2 2 2 2 2 2 1 1 1 1 1 1 1 1 1 1 1 1 1 1 1 1 1 1 1 1 0 0 0 0 -0 -0 -0 0 1 1 2 2 2 1 1 1 0 -0 -0 -0 -0 -0 -0 -0 -0 0 0 0
3 3 3 3 3 2 2 2 2 2 2 2 2 2 2 2 2 2 2 2 1 1 1 1 1 1 1 1 1 1 1 1 1 1 1 1 1 1 1 1 1 0 0 0 0 -0 -0 0 1 1 2 2 2 2 2 1 1 0 0 0 -0 -0 -0 -0 -0 -0 -0 0 0
3 3 3 2 2 2 2 2 2 2 2 2 2 1 1 1 1 1 1 1 1 1 1 1 1 1 1 1 1 1 1 1 1 1 1 1 1 1 1 1 1 0 0 0 -0 -0 -0 1 1 1 1 1 2 2 1 1 1 1 0 0 0 -0 -0 -0 -0 -0 -0 -0 -0
3 3 2 2 2 2 2 2 2 2 1 1 1 1 1 1 1 1 1 1 1 1 1 1 1 1 1 1 1 1 1 1 1 1 1 1 1 1 1 1 0 0 0 0 -0 -0 0 1 1 1 1 1 1 1 1 1 0 0 -0 -0 -0 -0 -0 -0 -0 -0 -1 -1 -1
3 2 2 2 2 2 2 2 2 1 1 1 1 1 1 1 1 1 1 1 1 1 1 1 1 1 1 1 1 1 1 1 1 1 1 0 0 0 0 0 0 0 -0 -0 -0 -0 0 1 1 1 1 1 0 0 -0 -0 -0 -1 -1 -1 -1 -1 -1 -1 -1 -1 -1 -1 -1
2 2 2 2 2 2 2 2 1 1 1 1 1 1 1 1 1 1 1 1 1 1 1 1 1 1 1 1 1 1 1 0 0 0 0 0 0 0 0 0 0 -0 -0 -0 -0 -0 0 0 0 0 0 0 -0 -1 -1 -1 -1 -1 -1 -1 -1 -1 -1 -1 -1 -1 -1 -1 -1
2 2 2 2 2 2 2 1 1 1 1 1 1 1 1 1 1 1 1 1 1 1 1 1 1 0 0 0 0 0 0 0 0 0 0 0 0 0 0 -0 -0 -0 -1 -1 -1 -0 0 0 -0 -0 -0 -0 -1 -1 -1 -1 -1 -2 -2 -2 -2 -2 -2 -2 -2 -2 -2 -2 -2
2 2 2 2 2 2 1 1 1 1 1 1 1 1 1 1 0 0 0 0 0 0 0 0 0 -0 -0 -0 -0 -0 -0 -0 -0 -0 -0 -0 -0 -0 -0 -0 -0 -1 -1 -1 -1 -0 -0 -0 -0 -0 -0 -1 -1 -1 -1 -2 -2 -2 -2 -2 -2 -2 -2 -2 -2 -2 -2 -2 -2
2 2 2 2 2 2 1 1 1 1 1 1 1 0 0 0 0 0 0 0 0 0 -0 -0 -0 -0 -0 -0 -0 -0 -0 -0 -0 -0 -0 -0 -0 -0 -0 -0 -1 -1 -1 -1 -1 -1 -1 -0 -1 -1 -1 -1 -1 -1 -1 -1 -2 -2 -2 -2 -2 -2 -2 -2 -2 -2 -2 -2 -2
2 2 2 2 2 1 1 1 1 1 1 0 0 0 0 0 0 -0 -0 -0 -0 -0 -0 -0 -0 -0 -0 -0 -0 -1 -1 -1 -1 -1 -1 -1 -1 -1 -1 -1 -1 -1 -1 -1 -2 -1 -1 -1 -1 -1 -1 -1 -1 -1 -1 -1 -1 -1 -1 -2 -2 -2 -2 -2 -2 -2 -2 -2 -2
2 2 2 2 2 1 1 1 1 1 0 0 0 0 0 0 -0 -0 -0 -0 -0 -0 -0 -0 -0 -0 -0 -1 -1 -1 -1 -1 -1 -1 -1 -1 -1 -1 -1 -1 -1 -1 -1 -1 -1 -1 -1 -1 -1 -1 -1 -1 -1 -1 -1 -1 -1 -1 -1 -1 -1 -1 -2 -2 -2 -2 -2 -2 -2
Height
808 809 809 810 810 811 811 812 812 813 813 813 814 814 814 814 815 815 815 815 815 815 815 815 815 815 815 815 815 815 815 815 815 815 814 814 814 814 814 814 815 815 815 815 816 816 817 818 818 818 818 819 819 819 819 819 820 820 820 820 821 822 822 823 824 824 824 824 824
808 808 809 809 810 810 811 811 811 812 812 812 813 813 813 814 814 814 814 814 814 814 814 814 814 814 814 814 814 814 814 814 814 813 813 813 813 813 813 813 813 813 814 814 814 815 815 816 816 817 817 817 818 818 818 819 819 819 819 819 820 820 821 822 823 823 823 823 823
807 807 808 809 809 809 810 810 810 811 811 811 812 812 812 812 813 813 813 813 813 813 813 813 813 813 813 813 813 813 812 812 812 812 812 812 812 812 812 812 812 812 812 813 813 814 814 815 815 815 816 816 816 817 817 818 818 818 818 819 819 819 820 822 822 822 822 822 822
806 807 807 808 808 809 809 809 810 810 810 810 811 811 811 811 811 812 812 812 812 812 812 812 812 812 812 812 812 812 811 811 811 811 811 811 811 811 811 811 811 811 812 812 812 813 813 814 814 814 815 815 815 816 816 816 817 817 817 818 818 819 819 821 821 821 821 821 822
806 806 807 807 807 808 808 809 809 809 809 810 810 810 810 810 811 811 811 811 811 811 811 811 812 811 811 811 811 811 811 810 810 810 810 810 810 810 810 810 811 811 811 811 812 812 812 813 813 814 814 814 814 815 815 815 816 816 816 817 817 818 818 819 819 820 820 820 820
805 805 806 806 807 807 808 808 808 808 809 809 809 809 809 810 810 810 810 810 810 810 810 811 811 811 810 810 810 810 810 810 810 810 810 810 810 810 810 810 810 811 811 811 811 812 812 812 813 813 813 814 814 814 814 815 815 815 816 816 816 817 817 818 818 819 819 819 819
804 805 805 806 806 806 807 807 807 808 808 808 809 809 809 809 809 809 810 810 810 810 810 810 810 810 810 810 810 810 810 809 809 809 810 810 810 810 810 810 810 810 811 811 811 811 811 812 812 813 813 813 813 814 814 814 814 815 815 815 815 816 816 817 817 818 818 819 819
804 804 805 805 805 806 806 806 807 807 807 808 808 808 809 809 809 809 809 809 809 809 809 809 809 809 809 809 809 809 809 809 809 809 809 809 809 809 810 810 810 810 810 811 811 811 811 811 812 812 812 812 813 813 813 813 814 814 814 814 815 815 816 816 816 817 817 818 818
804 804 804 805 805 805 805 806 806 807 807 807 807 808 808 808 808 808 808 809 809 809 809 809 809 809 809 809 809 809 809 809 809 810 810 810 810 810 810 810 810 810 810 810 811 811 811 811 811 812 812 812 812 812 812 813 813 813 813 814 814 815 815 816 816 816 817 817 817
804 804 804 804 804 805 805 805 806 806 806 806 807 807 807 807 807 808 808 808 808 809 809 809 809 809 809 809 809 809 809 810 810 810 810 810 810 810 810 810 810 810 810 811 811 811 811 811 811 811 811 811 811 812 812 812 813 813 813 813 814 814 815 815 816 816 816 817 817
804 804 804 804 804 805 805 805 805 805 806 806 806 806 807 807 807 807 807 808 808 808 809 809 809 809 809 809 809 810 810 810 810 810 810 810 810 810 810 810 810 811 811 811 811 811 811 811 811 811 811 811 811 812 812 813 813 813 813 813 814 814 814 815 815 816 816 816 817
803 804 804 804 804 805 805 805 805 805 805 806 806 806 806 807 807 807 807 808 808 808 808 809 809 809 809 809 809 810 810 810 810 810 810 810 810 810 810 811 811 811 811 811 811 811 811 811 811 811 811 811 811 812 812 812 813 813 813 813 813 814 814 814 815 815 816 816 817
803 804 804 804 804 805 805 805 805 805 805 806 806 806 807 807 807 807 808 808 808 808 809 809 809 809 809 809 810 810 810 810 810 811 811 811 810 810 811 811 811 811 811 811 811 811 811 811 811 811 811 811 811 811 812 812 813 813 813 813 813 813 814 814 814 815 815 816 817
803 803 804 804 804 805 805 805 805 805 805 806 806 806 807 807 807 808 808 808 808 808 808 809 809 809 809 809 809 810 810 810 810 810 810 810 810 810 810 810 810 811 811 811 811 811 811 811 810 810 811 811 811 811 812 812 812 813 813 813 813 813 814 814 814 815 815 816 816
803 803 804 804 804 804 805 805 805 805 806 806 806 807 807 807 808 808 808 808 808 808 808 809 809 809 809 809 809 809 810 810 810 810 810 810 810 810 810 810 810 810 810 810 810 810 810 810 810 810 810 811 811 811 811 812 812 813 813 813 813 813 813 814 814 814 815 816 816
803 803 804 804 804 804 805 805 805 805 806 806 807 807 807 807 808 808 808 808 808 808 808 808 809 809 809 809 809 809 809 809 809 809 809 809 809 809 809 809 809 810 810 810 810 810 810 810 810 810 810 811 811 811 811 812 812 812 813 813 813 813 813 814 814 814 815 816 816
803 803 803 804 804 804 805 805 805 805 806 806 806 807 807 807 808 808 808 808 808 808 808 808 808 808 808 809 809 809 809 809 809 809 809 809 809 809 809 809 809 809 809 809 809 809 809 809 810 810 810 810 811 811 811 812 812 812 812 813 813 813 813 814 814 814 815 816 816
802 803 803 804 804 804 805 805 805 805 806 806 806 807 807 807 808 808 808 808 808 808 808 808 808 808 808 808 808 808 808 809 809 809 809 808 808 808 808 808 808 809 809 809 809 809 809 809 809 810 810 810 811 811 811 812 812 812 812 812 813 813 813 814 814 815 815 816 816
802 803 803 804 804 804 805 805 805 805 806 806 806 807 807 807 807 808 808 808 808 808 808 808 808 808 808 808 808 808 808 808 808 808 808 808 808 808 808 808 808 808 808 808 808 809 809 809 809 810 810 810 811 811 811 812 812 812 812 812 813 813 813 814 814 815 816 816 817
802 802 803 804 804 804 804 805 805 805 806 806 806 806 807 807 807 807 807 807 807 807 807 807 807 807 807 807 807 807 807 807 807 807 807 807 807 807 807 807 808 808 808 808 808 808 809 809 809 809 810 810 810 811 811 811 812 812 812 813 813 813 814 814 815 815 816 816 817
802 802 803 804 804 804 804 805 805 805 805 806 806 806 806 806 806 806 806 807 807 807 807 807 807 807 807 807 807 807 807 807 807 807 807 807 807 807 807 807 807 807 808 808 808 808 809 809 809 809 810 810 811 811 811 812 812 812 813 813 813 814 814 815 815 816 817 817 817
802 802 803 803 804 804 804 805 805 805 805 805 805 805 805 806 806 806 806 806 806 806 806 806 806 806 806 806 806 806 806 806 806 807 807 807 807 807 807 807 807 807 807 808 808 808 809 809 809 809 810 810 811 811 811 812 812 813 813 814 814 814 815 816 816 817 817 818 818
801 802 802 803 803 804 804 804 804 805 805 805 805 805 805 805 805 805 805 805 806 806 806 806 806 806 806 806 806 806 806 806 806 806 806 806 806 806 806 807 807 807 807 808 808 808 808 809 809 809 810 810 811 811 812 812 812 813 813 814 814 815 816 816 817 818 818 819 819
801 801 802 802 803 803 804 804 804 804 804 804 804 804 804 804 804 804 805 805 805 805 805 805 805 805 805 805 805 805 805 805 806 806 806 806 806 806 806 807 807 807 807 808 808 808 808 809 809 809 810 810 811 811 812 812 813 813 814 814 815 815 816 817 817 818 819 819 820
800 801 801 802 802 802 803 803 804 804 804 804 804 804 804 804 804 804 804 804 804 805 805 805 805 805 805 805 805 805 805 805 805 806 806 806 806 806 807 807 807 807 807 807 807 808 808 808 809 809 810 810 811 811 812 812 813 814 814 815 815 816 816 817 818 818 818 819 819
800 800 801 801 801 802 802 802 803 803 803 803 803 803 803 803 804 804 804 804 804 804 804 804 804 805 805 805 805 805 805 805 806 806 806 806 806 807 807 807 807 807 807 807 807 808 808 809 809 809 810 810 811 811 812 813 814 814 814 815 815 816 816 817 818 818 819 819 819
799 800 800 800 801 801 801 802 802 802 803 803 803 803 803 803 803 803 804 804 804 804 804 804 804 804 804 804 805 805 805 805 805 806 806 806 806 807 807 807 807 807 807 807 808 808 808 809 809 809 810 810 811 811 812 813 814 814 815 815 816 816 817 817 818 819 819 819 820
799 799 799 800 800 800 801 801 802 802 802 802 802 802 802 803 803 803 803 803 804 804 804 804 804 804 804 804 805 805 805 805 806 806 806 806 807 807 807 807 807 807 807 808 808 808 809 809 809 810 810 810 811 812 812 813 814 814 814 815 816 817 818 818 819 819 820 820 820
798 799 799 799 800 800 800 801 801 801 802 802 802 802 802 802 803 803 803 803 803 804 804 804 804 804 804 805 805 805 805 806 806 806 807 807 807 807 807 808 808 808 808 808 809 809 809 809 810 810 811 811 811 812 813 813 814 814 815 816 817 818 818 819 819 820 820 821 821
798 798 798 799 799 799 800 800 800 801 801 801 802 802 802 802 802 802 803 803 803 804 804 804 804 804 805 805 805 805 806 806 806 807 807 807 808 808 808 808 808 809 809 809 809 809 810 810 810 811 811 811 811 812 813 814 814 815 816 817 817 818 819 819 820 820 821 821 822
797 797 798 798 799 799 799 800 800 800 801 801 801 801 802 802 802 802 802 803 803 803 804 804 804 804 805 805 805 806 806 806 807 807 807 808 808 808 809 809 809 809 809 810 810 810 810 810 811 811 811 812 812 813 813 814 815 816 816 817 818 819 819 819 820 821 821 822 822
796 797 797 798 798 799 799 799 800 800 800 801 801 801 801 802 802 802 802 803 803 804 804 804 804 805 805 806 806 806 806 807 807 808 808 808 808 809 809 809 809 810 810 810 810 811 811 811 811 811 812 813 813 813 814 814 815 816 817 817 818 819 819 819 820 821 822 822 823
796 796 797 797 798 798 799 799 799 800 800 800 801 801 801 802 802 802 802 803 803 804 804 804 804 805 805 806 806 807 807 807 808 808 808 808 809 809 809 809 810 810 811 811 811 811 811 811 812 812 813 813 814 814 814 815 816 816 817 818 818 819 819 820 820 821 821 822 823
795 796 796 797 797 798 798 798 799 799 800 800 800 801 801 801 802 802 802 803 803 804 804 804 805 805 806 806 806 807 807 808 808 808 808 809 809 809 809 810 810 811 811 811 812 812 812 812 813 813 814 814 814 815 815 816 817 817 818 818 819 819 819 820 820 821 821 822 823
794 795 796 796 797 797 798 798 799 799 799 800 800 801 801 801 802 802 803 803 803 804 804 805 805 806 806 807 807 807 808 808 808 809 809 809 809 810 810 810 811 811 812 812 812 812 812 813 813 814 814 814 815 816 816 817 817 818 818 819 819 819 820 820 821 821 822 822 823
794 794 795 795 796 797 797 798 798 799 799 800 800 800 801 801 802 802 803 803 803 804 804 805 805 806 806 807 807 808 808 808 809 809 809 809 810 810 810 811 811 812 812 812 813 813 813 814 814 814 815 815 816 816 817 817 818 819 819 819 820 820 820 821 821 822 822 823 823
793 794 794 795 795 796 797 797 798 799 799 799 800 800 801 801 802 802 803 803 803 804 804 805 805 806 806 807 807 807 808 808 809 809 809 810 810 811 811 811 812 812 813 813 813 813 814 814 814 815 815 816 816 817 817 818 819 819 820 820 820 821 821 822 822 822 823 823 824
792 793 794 794 795 795 796 797 798 798 799 799 799 800 800 801 801 802 802 803 803 804 804 805 805 805 806 806 807 807 808 808 809 809 809 810 811 811 811 812 812 813 813 813 814 814 814 814 815 815 816 816 817 817 818 819 819 819 820 820 821 821 822 822 823 823 824 824 824
792 792 793 794 794 795 795 796 797 798 798 799 799 800 800 801 801 802 802 803 803 804 804 804 805 805 806 807 807 808 808 809 809 809 809 810 811 811 812 812 813 813 814 814 814 814 814 815 815 816 816 817 817 818 818 819 819 820 820 821 821 822 822 823 823 824 824 824 824
791 792 792 793 794 794 795 796 797 797 798 799 799 799 800 801 801 802 802 803 803 804 804 804 805 806 806 807 808 808 809 809 809 810 810 810 811 812 812 813 813 814 814 814 814 815 815 815 816 816 816 817 817 818 818 819 819 820 821 821 822 822 823 823 824 824 824 824 825
790 791 792 792 793 794 794 795 796 797 798 798 799 799 800 800 801 802 802 803 803 804 804 805 805 806 807 807 808 808 809 809 810 810 810 811 811 812 812 813 813 814 814 815 815 815 815 816 816 816 817 817 818 818 819 819 820 820 821 821 822 823 823 824 824 824 824 825 825
Wind_Speed
11 10 10 10 10 10 11 11 12 12 12 12 12 12 12 12 11 12 13 14 14 15 16 17 17 18 18 19 19 18 18 18 18 18 18 19 19 20 20 20 20 19 18 18 17 17 16 16 17 18 19 20 20 21 21 21 20 20 18 16 14 13 13 13 13 13 14 14 14
10 10 9 9 9 9 9 10 10 10 10 10 11 10 10 10 9 10 11 11 12 14 14 15 15 16 16 16 15 15 15 16 16 16 16 16 17 17 17 16 16 16 16 16 16 15 15 16 17 19 20 20 21 22 22 21 20 19 17 15 14 14 14 15 15 15 15 15 15
10 9 9 9 9 9 9 9 8 8 8 8 8 9 8 8 9 9 9 10 11 11 12 12 12 13 13 13 13 13 14 14 14 14 14 14 14 13 13 13 13 13 13 13 13 13 14 16 17 19 20 21 21 21 21 20 18 16 14 13 12 13 14 16 16 16 15 15 15
10 10 9 9 9 8 8 8 7 7 7 7 6 7 7 7 8 8 9 9 9 9 10 10 10 10 11 11 11 12 12 12 12 12 12 12 11 11 11 11 11 11 11 11 12 13 14 16 17 19 20 20 20 19 18 17 15 13 12 12 12 13 15 17 17 17 16 16 16
10 10 9 9 9 9 8 8 7 7 6 6 6 6 6 6 7 7 7 7 8 8 8 8 9 9 9 10 10 10 10 11 10 10 10 10 10 10 10 10 10 10 11 12 13 14 15 16 17 18 19 19 18 17 16 14 13 12 12 13 14 15 16 18 18 19 18 17 17
10 10 9 9 9 8 8 8 7 7 6 6 5 5 6 6 6 6 6 7 7 7 8 8 8 8 9 9 9 8 8 8 8 8 8 8 8 8 9 9 10 10 11 12 13 13 14 15 16 16 17 16 15 14 14 13 14 14 15 15 16 16 17 17 18 18 18 17 16
10 10 9 9 8 8 8 7 7 7 6 6 5 5 6 6 6 6 6 6 6 7 7 7 7 7 6 6 6 5 5 5 6 6 6 6 6 7 7 8 9 10 11 11 12 13 13 14 14 14 14 14 13 13 14 15 16 16 15 15 15 16 16 16 16 16 15 15 14
9 9 9 8 8 8 8 7 7 7 6 6 6 6 6 6 6 6 6 7 7 7 6 6 5 4 3 3 3 3 3 3 3 3 3 3 3 4 5 6 7 8 9 10 10 11 11 12 12 12 12 13 13 14 15 15 14 14 13 13 13 13 14 14 14 14 13 12 12
8 8 8 8 8 8 7 7 7 7 7 7 6 7 7 6 6 6 7 7 7 6 5 4 4 3 3 2 1 1 1 1 1 1 1 1 1 1 2 3 3 4 5 6 6 6 7 7 8 10 11 11 11 11 11 11 11 11 11 11 11 11 11 12 12 11 11 10 10
7 7 7 7 7 7 7 7 7 7 7 7 7 7 7 7 7 6 6 6 5 5 5 5 4 4 4 3 3 3 3 3 3 3 4 4 4 4 4 4 3 3 3 4 4 4 3 3 4 5 6 7 7 7 8 9 9 10 10 9 9 9 10 10 10 10 9 9 9
7 7 7 7 7 7 7 7 7 7 7 6 7 7 7 6 6 5 5 5 5 6 6 6 6 6 5 5 5 5 5 4 5 6 6 7 6 6 6 5 4 4 3 3 3 3 2 2 3 3 4 4 5 6 8 8 9 10 10 9 10 10 10 9 9 9 8 8 9
7 6 6 6 6 6 6 6 6 6 6 6 6 7 6 6 6 6 6 6 7 8 8 8 8 7 7 7 7 7 6 6 7 7 7 7 6 6 5 4 3 3 2 3 3 3 3 3 4 4 5 5 6 7 8 9 10 10 10 10 10 10 10 9 9 8 8 8 9
6 6 6 6 6 6 6 6 6 6 6 7 7 7 8 8 7 8 8 8 9 10 10 10 9 9 9 8 8 8 7 7 7 7 7 6 6 5 5 4 5 5 5 4 4 4 5 5 6 6 7 7 8 9 10 10 10 10 10 10 10 10 9 8 8 8 8 8 9
6 6 7 7 7 6 6 7 7 7 7 8 8 9 9 9 9 9 10 11 11 12 12 12 11 10 9 8 8 8 8 7 7 7 7 7 7 6 7 7 8 8 7 7 7 7 7 7 8 8 9 9 10 10 11 11 11 10 10 10 9 9 8 7 7 8 8 9 9
7 7 7 7 7 7 7 8 8 8 8 9 9 10 11 11 11 11 11 12 12 12 12 12 11 10 9 9 8 8 8 8 8 8 8 8 8 9 9 9 10 10 9 9 9 9 9 9 9 9 10 10 11 11 11 11 10 9 9 8 8 7 7 7 7 8 8 9 9
7 8 8 8 8 8 8 8 9 9 10 10 11 12 13 13 13 12 12 13 12 11 11 11 10 9 9 9 8 8 7 7 8 8 8 9 9 10 10 10 10 10 10 10 10 10 10 10 10 10 10 10 11 11 11 10 10 9 8 8 7 7 7 7 8 8 9 9 9
7 8 8 8 9 9 9 9 9 10 11 11 12 13 13 14 13 13 13 12 11 10 10 9 9 9 8 8 8 8 7 7 8 8 8 9 9 9 10 10 10 10 10 10 9 9 9 10 10 10 10 10 10 10 10 9 9 8 8 8 8 8 8 8 9 9 10 10 10
8 8 8 8 9 9 9 9 10 10 11 11 12 13 13 13 13 13 12 11 9 8 8 8 8 8 8 7 8 8 8 8 8 8 8 8 8 8 8 8 8 8 8 8 8 8 9 10 10 10 10 10 9 9 9 8 8 8 8 8 9 9 9 10 10 11 11 11 10
8 8 8 8 9 9 9 9 10 10 10 10 10 11 12 12 11 10 9 8 8 7 7 7 7 7 7 7 8 8 8 8 7 7 7 7 7 6 6 6 6 7 7 7 8 8 9 10 10 9 9 9 9 8 8 8 8 8 9 9 10 10 11 11 12 12 11 11 11
9 9 8 8 8 8 8 9 9 9 9 8 8 8 9 9 8 7 7 6 7 7 6 6 6 6 7 7 7 7 7 7 6 6 6 6 5 5 5 5 6 6 7 7 8 9 10 10 9 9 8 8 8 8 8 9 10 10 11 11 11 12 12 12 12 12 12 12 11
10 9 9 8 7 7 7 7 7 7 7 6 6 6 7 6 6 6 6 6 6 6 6 6 6 6 6 6 6 6 6 6 6 6 6 6 6 6 6 6 6 6 7 7 8 9 9 9 8 8 8 8 9 9 10 11 12 12 12 12 12 13 13 13 13 13 13 13 13
10 9 8 7 7 6 6 5 5 6 6 6 6 6 7 7 7 7 7 7 7 7 7 8 8 7 6 6 6 6 6 6 7 7 7 7 7 7 7 6 7 7 8 8 8 8 8 8 8 8 9 10 11 12 12 13 13 13 13 13 13 14 14 13 13 14 14 14 14
10 9 8 7 7 6 6 6 6 6 7 7 7 8 8 8 8 8 8 8 8 8 8 9 8 7 7 7 6 6 7 8 8 8 8 8 8 8 7 7 7 7 8 8 8 9 9 8 9 9 11 12 13 13 13 13 13 13 13 14 14 14 14 14 13 13 13 13 13
10 9 8 8 7 7 7 7 8 8 8 8 8 8 9 9 9 10 10 10 9 9 9 9 8 8 7 7 7 7 8 9 9 9 9 9 8 8 7 7 7 7 8 7 8 8 9 10 11 12 13 13 14 14 13 13 13 13 13 14 14 14 14 14 14 13 13 12 11
10 9 9 8 8 8 9 9 9 9 9 8 8 9 9 10 11 11 11 11 10 10 10 9 9 8 8 8 8 8 9 9 9 9 9 8 8 8 7 7 7 7 7 7 8 9 10 11 12 13 14 14 14 13 13 13 13 13 13 13 13 14 14 13 13 14 14 14 12
10 10 9 9 9 9 9 9 9 9 8 8 8 9 10 11 12 12 12 11 10 10 10 10 9 8 8 8 9 9 9 9 9 9 8 8 8 7 7 7 7 7 7 7 8 9 10 11 13 13 14 14 14 13 13 13 13 13 13 13 13 13 14 14 13 13 14 15 14
10 10 9 9 8 9 9 10 10 9 8 8 9 10 11 12 13 12 12 11 10 10 10 10 9 9 9 9 9 9 9 9 9 8 8 8 7 7 7 7 6 6 7 7 8 9 10 11 12 13 14 14 14 14 13 13 13 13 13 13 13 13 14 14 14 14 14 14 14
10 10 9 8 8 9 11 11 10 9 8 8 9 10 12 13 13 12 12 11 10 10 10 9 9 9 9 9 9 9 9 8 8 8 8 7 7 7 7 7 7 7 8 9 9 10 10 11 12 13 13 14 14 14 14 14 14 14 14 14 13 13 13 13 13 13 13 13 13
10 9 9 9 9 11 11 11 10 9 8 8 9 11 12 13 13 12 11 10 10 10 10 10 10 10 10 9 9 9 9 8 8 8 8 8 8 8 8 8 8 8 9 9 10 10 11 11 12 12 13 13 14 14 14 14 15 15 14 14 13 12 12 12 11 11 10 10 11
11 10 9 9 10 11 11 11 10 9 9 9 10 11 12 12 12 12 11 10 10 10 10 10 10 10 10 10 10 9 9 9 9 9 9 9 9 9 9 9 10 10 10 10 10 10 11 11 11 12 13 14 14 15 16 16 16 15 14 13 13 12 11 11 10 9 9 8 8
11 10 10 10 11 11 11 11 10 9 9 9 10 11 11 11 10 11 11 11 10 10 11 11 10 10 10 10 10 10 9 9 9 9 9 9 9 10 10 10 11 11 11 10 11 11 11 11 11 12 13 13 14 16 17 17 16 15 14 13 13 12 12 11 10 9 8 8 7
11 11 11 11 12 12 11 10 9 9 9 9 10 10 10 10 10 10 11 11 11 11 11 11 11 11 10 10 10 10 10 9 9 9 10 10 10 11 11 11 11 11 11 11 11 11 11 11 11 12 13 14 15 16 17 17 16 15 14 14 13 12 12 11 10 9 8 8 7
12 12 12 12 12 12 11 10 9 9 9 10 10 10 10 10 10 10 10 11 11 11 12 12 12 11 11 10 10 10 10 10 10 10 11 11 12 12 12 12 12 11 11 11 11 11 11 12 12 13 14 14 15 15 15 15 15 14 13 12 11 11 11 11 10 10 9 9 8
13 12 12 13 12 12 11 10 9 9 10 10 11 11 10 10 10 10 10 11 11 12 12 12 12 12 11 11 11 10 10 10 11 11 11 12 12 12 12 12 12 12 11 11 12 12 12 13 13 14 14 15 14 14 13 13 12 12 11 10 9 9 9 9 9 9 9 8 8
13 13 13 13 13 12 11 10 10 10 10 11 11 11 11 11 10 10 10 11 12 12 12 12 12 11 11 11 10 10 11 11 11 12 12 12 13 12 12 12 12 12 12 12 12 12 13 13 14 14 14 14 14 13 12 11 11 10 10 9 8 8 7 7 7 7 7 7 7
14 14 14 14 13 13 12 11 10 11 11 11 12 11 11 11 10 10 11 12 13 13 12 12 12 11 11 10 10 10 11 11 12 12 12 12 12 12 12 12 12 12 12 12 12 12 13 13 13 13 13 13 13 12 11 11 10 9 9 9 8 8 7 7 7 6 6 6 6
15 15 15 14 14 13 12 11 11 11 12 12 12 12 12 11 11 11 12 13 13 13 13 12 12 11 11 11 12 12 12 12 12 12 12 12 12 13 13 13 12 12 12 12 12 12 12 13 13 13 13 13 12 12 11 10 10 9 9 8 8 8 8 7 7 7 6 6 6
15 15 15 15 14 14 13 12 12 12 13 13 13 13 13 12 12 12 13 14 14 14 13 13 13 13 13 14 14 15 15 14 14 14 14 13 13 13 13 13 12 12 12 11 12 12 12 12 12 12 12 12 12 11 11 10 9 9 9 8 8 8 8 8 7 7 7 6 6
16 16 16 15 15 14 13 13 13 13 13 13 13 13 14 13 13 13 13 14 14 14 14 14 14 14 14 15 15 15 15 15 15 16 16 15 14 13 12 12 12 12 11 11 11 11 11 11 11 11 11 12 12 11 10 9 9 9 8 8 8 8 8 8 7 7 6 7 7
16 16 16 16 15 14 14 14 14 14 14 14 14 14 14 14 13 13 13 14 14 14 15 15 15 15 14 14 14 15 15 15 15 16 16 16 15 14 13 12 12 12 11 11 11 11 11 11 11 11 11 11 11 11 10 9 9 8 8 8 7 7 7 7 7 6 6 7 7
16 17 17 17 16 15 15 15 15 15 15 15 15 15 15 14 14 14 14 13 14 14 14 14 15 14 14 14 15 15 15 15 15 15 16 17 16 16 15 14 13 13 12 11 11 11 11 11 11 11 11 11 11 11 10 9 8 8 8 7 7 7 6 6 6 6 5 6 6
Wind_Direction
204 208 211 216 221 226 231 236 239 241 244 246 247 249 250 249 249 251 252 253 253 253 253 254 253 254 255 256 257 258 260 261 262 262 261 261 260 259 259 258 256 253 250 247 243 240 238 236 236 238 240 242 244 244 241 237 233 229 228 229 232 235 234 231 228 226 224 224 226
193 196 200 205 210 216 222 228 232 234 236 237 238 239 240 240 239 241 244 246 248 249 250 251 252 253 254 255 257 259 260 262 263 263 263 262 262 261 260 259 257 255 253 250 247 243 239 237 238 240 243 246 247 244 240 237 233 230 231 235 240 243 241 237 232 229 227 228 233
185 188 193 198 203 209 215 220 224 226 228 230 233 233 230 229 230 232 236 239 242 245 246 248 251 253 255 256 258 260 262 263 265 265 266 265 265 264 262 260 258 256 253 251 247 243 240 239 240 242 244 245 244 240 235 234 232 232 234 239 244 247 247 244 240 237 236 237 240
182 185 189 193 196 200 205 210 212 215 219 225 228 228 227 228 229 231 234 238 241 245 246 248 251 254 256 257 260 263 264 266 267 268 268 268 267 266 263 260 256 253 249 245 242 240 239 239 241 242 242 240 237 233 230 229 231 233 237 241 244 246 247 247 246 245 244 243 241
182 185 186 189 191 193 196 200 202 207 214 222 223 224 228 231 233 233 236 240 244 248 249 249 250 253 257 258 261 264 267 269 270 271 272 272 271 267 262 257 252 248 244 241 240 239 239 240 240 239 237 234 230 228 227 231 236 242 247 249 247 244 242 242 245 247 247 243 238
182 185 186 188 190 192 195 198 201 205 210 214 213 215 222 231 235 236 236 239 245 249 250 250 250 253 257 260 262 266 270 273 274 275 277 277 274 268 261 254 249 245 243 240 238 238 238 237 235 232 230 228 227 230 235 243 249 252 251 248 245 241 238 237 240 241 239 235 231
182 184 185 187 189 191 193 197 200 203 205 204 202 204 213 224 230 232 233 236 240 244 247 248 249 253 259 264 269 274 279 281 279 276 275 275 273 267 261 255 250 247 244 242 240 238 236 234 230 228 229 231 235 242 248 252 252 249 244 239 237 236 235 233 234 232 228 224 224
183 184 186 187 189 191 193 196 198 199 199 198 198 202 211 219 223 227 231 233 234 236 239 240 239 243 252 264 278 284 287 285 281 276 271 269 268 265 258 252 248 245 243 241 239 237 235 233 231 232 236 241 244 247 250 249 245 240 234 230 230 230 229 227 225 221 217 215 217
184 186 187 189 191 193 194 196 196 194 194 196 202 209 215 221 224 227 228 228 228 228 225 217 212 209 209 206 207 206 202 193 177 173 171 172 181 197 208 215 220 224 226 226 224 224 227 229 230 233 237 242 241 240 238 235 229 226 223 221 221 222 220 216 212 209 208 209 211
186 187 190 191 194 195 196 196 196 196 197 201 210 217 223 225 225 222 217 213 212 206 195 184 179 173 169 168 164 153 145 141 138 135 134 135 133 132 132 135 142 154 167 179 183 191 202 216 220 223 225 228 224 221 218 215 210 209 209 210 210 207 202 199 198 197 199 202 206
188 189 191 191 193 194 195 195 198 200 202 206 212 217 217 213 205 198 193 191 186 177 170 165 161 156 155 155 152 148 145 146 146 145 142 139 137 135 133 134 136 138 146 158 167 175 185 203 210 212 214 216 211 205 201 200 199 198 197 197 197 194 190 190 192 193 194 198 203
188 189 190 189 188 188 189 191 194 197 199 201 204 202 194 182 176 176 176 174 170 165 161 159 159 161 161 158 154 152 152 154 156 156 155 152 152 154 157 162 170 178 188 194 193 196 204 213 217 216 214 214 208 202 198 196 196 195 193 190 189 187 186 188 192 196 199 203 205
183 183 183 182 181 179 180 183 185 186 186 188 188 182 173 166 170 171 169 167 167 166 163 162 163 165 165 164 163 165 168 171 175 178 180 182 184 191 202 214 227 237 241 235 226 222 223 225 225 221 216 212 207 203 200 197 195 194 192 189 188 188 189 192 196 201 206 207 205
176 176 176 174 172 171 173 176 178 176 177 178 177 171 165 166 171 171 169 170 170 169 167 169 172 174 175 176 179 184 190 195 201 206 212 217 222 227 233 239 245 248 248 244 237 231 226 223 222 220 216 211 206 202 199 196 195 194 193 192 192 193 196 199 205 208 207 204 200
172 172 172 171 169 170 173 176 176 174 173 173 173 170 167 168 171 172 173 174 175 175 175 177 181 185 190 193 197 202 209 216 223 229 235 240 243 245 246 247 249 249 247 243 237 232 225 220 216 214 212 209 205 200 197 196 196 198 199 200 202 203 203 205 207 205 199 193 187
173 173 172 170 170 173 177 179 179 177 174 173 175 173 171 171 173 176 177 179 182 185 188 191 194 198 203 206 209 214 220 228 234 239 243 247 249 250 250 249 248 246 243 240 235 230 224 218 214 209 207 205 202 200 198 199 202 205 207 209 208 204 200 197 193 187 182 178 172
176 176 175 173 174 177 181 184 184 182 179 178 178 176 175 175 179 182 185 187 191 197 202 207 210 212 215 217 221 223 227 233 237 241 244 246 247 249 249 247 244 240 237 235 232 226 218 212 209 204 201 200 200 201 202 204 208 210 210 207 200 193 186 181 177 171 166 163 159
179 180 179 179 180 183 185 188 188 186 184 182 182 182 182 184 187 192 196 198 201 207 213 217 220 223 224 226 230 233 235 237 240 242 244 245 245 245 244 242 235 230 228 226 223 215 206 200 199 198 197 197 199 201 204 205 206 203 196 188 181 175 171 167 163 159 155 151 148
182 182 183 183 186 189 191 191 191 189 187 187 190 194 196 197 199 203 208 210 211 215 219 225 229 231 231 234 239 243 244 243 243 245 244 242 239 237 234 229 224 220 217 213 206 199 192 189 189 191 193 195 196 197 196 193 186 178 170 164 161 159 157 154 151 148 145 143 139
183 181 181 183 187 191 194 194 194 193 194 198 204 210 213 212 212 215 219 220 219 220 223 227 230 231 233 238 245 250 250 244 238 235 233 229 223 219 216 214 210 206 203 199 195 190 187 186 188 191 194 193 189 182 175 168 159 152 148 146 145 145 144 142 140 138 136 135 131
182 179 178 181 184 188 192 195 198 202 207 215 222 229 231 230 226 224 222 221 219 216 216 219 222 224 229 237 244 246 242 233 219 211 209 205 200 198 198 198 196 194 190 188 187 186 187 188 191 191 188 182 172 163 155 148 142 139 136 134 133 133 132 131 131 130 129 127 126
182 182 183 184 187 193 201 209 218 224 230 235 239 242 242 239 232 225 220 216 212 207 206 209 212 217 225 235 240 237 228 216 204 198 194 191 190 190 192 193 193 191 188 185 184 184 184 186 186 180 172 163 155 150 144 140 136 132 130 128 126 124 123 122 123 123 123 123 122
188 191 193 197 204 213 222 231 238 241 243 243 243 242 240 235 227 220 213 207 204 203 205 208 212 219 228 236 236 229 219 210 203 200 197 196 195 195 194 192 190 187 185 183 183 181 178 173 168 162 157 151 147 142 139 137 135 133 130 128 125 123 121 119 118 117 116 115 115
198 202 207 213 221 228 234 239 242 242 241 238 238 237 233 226 218 210 205 201 201 203 208 212 217 223 228 229 224 219 214 209 206 205 205 204 201 198 192 187 183 180 177 178 180 178 171 162 155 151 149 147 143 141 139 138 138 136 134 132 130 128 127 124 122 119 116 113 110
206 212 218 224 230 235 239 239 238 234 232 231 231 229 223 216 208 202 198 198 201 207 212 217 221 222 220 216 211 209 209 208 205 203 201 199 198 194 187 180 175 174 176 178 178 174 168 160 153 149 146 145 144 141 140 139 139 139 138 137 135 133 132 131 130 130 129 127 123
210 215 222 228 234 236 234 230 224 221 220 222 224 220 214 207 201 197 195 198 204 211 216 219 219 216 211 206 203 201 200 200 199 196 193 189 187 184 180 174 172 171 172 171 170 168 164 159 155 152 149 147 145 142 139 138 138 139 139 139 139 138 136 134 135 137 138 137 134
211 215 220 228 231 228 220 214 210 209 210 216 218 215 208 201 196 194 195 201 207 212 214 213 210 205 201 199 197 193 191 190 190 188 183 179 173 170 167 164 160 158 157 157 157 159 159 158 156 154 152 148 146 143 140 139 140 141 141 141 141 141 140 138 138 138 139 138 136
207 211 217 223 222 216 208 202 198 199 205 213 216 213 206 198 194 194 198 205 207 206 202 199 195 192 189 187 185 183 180 177 173 169 165 161 157 154 151 146 142 142 144 146 147 151 155 157 157 155 153 149 146 144 143 144 145 145 144 142 141 140 140 139 139 139 138 137 137
204 207 212 214 212 206 199 194 191 195 202 210 214 212 204 196 193 195 199 203 201 195 189 185 182 180 177 172 170 167 163 157 153 150 148 146 144 141 139 136 134 136 139 142 144 147 151 154 155 154 154 152 149 148 148 148 147 145 143 141 139 139 140 140 139 139 138 138 140
203 204 207 207 205 200 194 191 191 196 202 208 210 207 202 195 192 193 195 194 189 184 180 177 173 169 165 162 158 154 150 146 144 143 142 141 139 137 135 133 133 135 138 141 141 143 147 151 155 158 159 159 156 153 150 147 144 142 140 139 139 140 140 139 138 137 136 137 139
202 203 204 203 200 196 192 192 193 196 201 205 205 202 196 190 187 187 187 187 183 178 174 170 166 162 159 157 153 150 148 146 143 143 143 142 139 137 135 134 133 135 138 140 140 141 144 150 157 161 162 161 158 154 150 146 143 141 141 141 141 141 141 139 136 134 133 132 133
200 201 201 200 197 193 190 189 190 193 197 200 200 196 190 184 181 180 181 180 176 172 168 164 161 158 156 155 152 151 149 147 146 146 145 143 140 138 135 133 134 136 139 140 139 140 144 151 156 159 159 157 155 152 150 147 145 144 143 143 143 142 140 138 135 132 131 128 128
199 199 199 197 194 191 187 185 186 190 193 194 193 190 184 178 176 175 175 175 172 167 164 161 159 156 154 153 152 151 149 147 147 147 146 144 141 138 136 134 135 138 140 141 141 142 146 150 151 151 151 152 151 149 148 148 146 144 143 142 141 140 140 140 140 139 138 136 131
197 197 197 195 192 188 185 185 186 188 189 188 187 184 179 175 172 171 170 170 168 165 162 161 159 157 155 154 152 151 149 148 147 146 145 143 141 138 136 135 137 140 143 143 143 145 148 148 147 147 148 148 147 146 145 144 143 142 140 139 139 140 142 144 146 148 148 147 142
196 196 194 192 189 185 182 182 184 185 186 184 182 180 177 176 172 170 168 168 165 162 160 159 158 156 154 153 152 151 149 148 147 146 144 142 141 138 136 135 137 141 144 146 147 149 150 148 146 147 148 147 145 143 142 141 140 139 139 139 139 140 141 144 147 150 152 152 148
196 195 192 189 186 182 179 178 181 184 184 182 179 177 175 174 172 171 169 166 162 159 157 157 156 153 151 150 150 150 149 149 147 146 144 143 141 139 136 135 136 140 145 149 151 153 152 150 149 149 150 148 145 144 143 141 139 138 138 139 140 143 145 147 148 150 152 152 148
197 194 190 186 183 180 177 177 181 183 183 181 178 176 173 170 169 169 169 166 161 158 156 156 155 154 153 154 154 154 152 150 148 146 145 143 142 139 137 136 136 139 144 149 153 154 153 152 152 151 150 148 147 145 144 141 138 136 136 137 140 145 148 148 149 149 150 149 147
197 193 189 185 181 179 177 178 181 183 183 181 178 177 176 174 171 170 169 168 163 160 158 159 158 160 163 164 163 161 158 155 153 151 148 143 140 138 137 136 136 139 144 148 152 153 152 151 151 151 150 148 147 146 144 141 137 135 134 135 139 144 147 147 146 146 148 148 148
196 193 188 184 180 178 177 179 183 184 183 181 178 178 179 178 174 172 171 170 167 165 164 165 168 170 172 172 170 168 166 164 162 159 154 148 142 138 136 136 137 141 146 149 150 150 149 149 149 149 149 148 148 146 144 141 137 135 135 135 136 140 144 145 143 143 145 149 148
195 191 188 184 180 178 178 181 184 185 184 182 180 180 180 178 175 173 172 172 171 172 172 174 176 178 178 177 174 172 170 169 168 165 161 155 148 143 139 138 139 143 148 150 149 147 146 145 145 146 148 148 148 147 144 142 139 137 137 138 138 140 142 146 145 143 143 146 146
194 191 187 184 182 182 183 185 187 187 186 185 184 183 182 179 176 174 174 174 175 176 178 179 181 181 180 178 176 174 172 171 170 169 166 161 156 152 148 145 144 145 148 149 148 146 144 143 143 144 146 147 147 146 144 143 142 142 144 145 145 146 147 151 153 152 151 151 151